Location: Usti nad Labem
(50.6670°N, 14.0330°E)
Time: 19:17:54
(UTC+01:00)

ISS - Visible Passes

Search period start: 25 January 2015 00:00
Search period end: 04 February 2015 00:00
Orbit: 402 x 410 km, 51.6° (Epoch: 25 January)

Date Brightness Start Highest point End Pass type
(mag) Time Alt. Az. Time Alt. Az. Time Alt. Az.
25 Jan -1.7 05:34:02 27° S 05:34:02 27° S 05:36:02 10° SE visible
26 Jan 0.0 04:44:34 10° SE 04:44:34 10° SE 04:44:35 10° SE visible
26 Jan -1.0 06:17:16 12° SW 06:17:19 12° SW 06:18:34 10° SSW visible
27 Jan -0.6 05:27:52 11° S 05:27:52 11° S 05:28:09 10° S visible
